TimeCDT,TemperatureF,Dew PointF,Humidity,Sea Level PressureIn,VisibilityMPH,Wind Direction,Wind SpeedMPH,Gust SpeedMPH,PrecipitationIn,Events,Conditions,WindDirDegrees,DateUTC
12:53 AM,60.1,55.9,86,29.82,10.0,Variable,4.6,-,N/A,,Overcast,0,2013-05-22 05:53:00
1:53 AM,59.0,55.0,87,29.78,10.0,NW,4.6,-,N/A,,Overcast,310,2013-05-22 06:53:00
2:53 AM,57.0,54.0,89,29.79,10.0,Calm,Calm,-,N/A,,Clear,0,2013-05-22 07:53:00
3:53 AM,57.9,54.0,87,29.79,10.0,WSW,5.8,-,N/A,,Clear,240,2013-05-22 08:53:00
4:53 AM,57.0,53.1,87,29.80,10.0,West,4.6,-,N/A,,Clear,270,2013-05-22 09:53:00
5:53 AM,57.0,53.1,87,29.83,10.0,West,4.6,-,N/A,,Clear,260,2013-05-22 10:53:00
6:53 AM,57.9,53.1,84,29.83,10.0,SSW,3.5,-,N/A,,Clear,210,2013-05-22 11:53:00
7:53 AM,62.1,54.0,75,29.82,10.0,SW,4.6,-,N/A,,Clear,220,2013-05-22 12:53:00
8:53 AM,66.0,55.0,68,29.84,10.0,Calm,Calm,-,N/A,,Clear,0,2013-05-22 13:53:00
9:53 AM,66.9,55.0,66,29.85,10.0,WNW,6.9,-,N/A,,Clear,290,2013-05-22 14:53:00
10:53 AM,70.0,55.0,59,29.86,10.0,WSW,6.9,-,N/A,,Clear,250,2013-05-22 15:53:00
11:53 AM,72.0,55.0,55,29.85,10.0,West,11.5,-,N/A,,Clear,270,2013-05-22 16:53:00
12:53 PM,73.0,55.0,53,29.85,10.0,WSW,11.5,18.4,N/A,,Clear,250,2013-05-22 17:53:00
1:53 PM,73.9,54.0,50,29.84,10.0,West,13.8,21.9,N/A,,Clear,260,2013-05-22 18:53:00
2:53 PM,75.9,54.0,46,29.83,10.0,WNW,16.1,26.5,N/A,,Partly Cloudy,290,2013-05-22 19:53:00
3:53 PM,75.0,55.9,51,29.84,10.0,West,11.5,20.7,N/A,,Clear,280,2013-05-22 20:53:00
4:53 PM,75.0,53.1,46,29.84,10.0,West,12.7,19.6,N/A,,Clear,280,2013-05-22 21:53:00
5:53 PM,73.9,54.0,50,29.85,10.0,WNW,9.2,17.3,N/A,,Clear,300,2013-05-22 22:53:00
6:53 PM,73.0,55.0,53,29.86,10.0,WNW,4.6,-,N/A,,Clear,290,2013-05-22 23:53:00
7:53 PM,69.1,55.0,61,29.87,10.0,WNW,3.5,-,N/A,,Clear,290,2013-05-23 00:53:00
8:53 PM,64.9,55.0,70,29.89,10.0,Calm,Calm,-,N/A,,Clear,0,2013-05-23 01:53:00
9:53 PM,63.0,55.0,75,29.92,10.0,Calm,Calm,-,N/A,,Clear,0,2013-05-23 02:53:00
10:53 PM,62.1,55.0,78,29.94,10.0,West,3.5,-,N/A,,Scattered Clouds,260,2013-05-23 03:53:00
11:53 PM,61.0,55.0,81,29.94,10.0,West,3.5,-,N/A,,Clear,260,2013-05-23 04:53:00